EA5DFV Weather Reports


time (UTC)temp
C
wind
direction
speed
KPH
gust
KPH
rain 1hr
cm
rain 24hr
cm
rain mn
cm
humidity
%
barometer
mb
20220525133335 21 355 8.0 16.1 0.00 2.21 0.15 55 1017.8
20220525132822 21 360 6.4 16.1 0.00 2.21 0.15 56 1017.7
20220525132338 21 10 1.6 14.5 0.00 2.21 0.15 57 1017.8
20220525131825 21 331 4.8 14.5 0.00 2.21 0.15 59 1017.7
20220525131320 21 337 4.8 14.5 0.00 2.21 0.15 58 1017.7
20220525130831 21 329 1.6 14.5 0.00 2.21 0.15 58 1017.6
20220525130322 21 349 4.8 17.7 0.00 2.21 0.15 57 1017.7
20220525125816 21 346 3.2 16.1 0.00 2.21 0.15 54 1017.7
20220525125329 21 320 8.0 17.7 0.00 2.21 0.15 52 1017.7
20220525124827 21 251 3.2 17.7 0.00 2.21 0.15 52 1017.6
20220525124346 21 306 3.2 16.1 0.00 2.21 0.15 53 1017.6
20220525123833 21 333 6.4 20.9 0.00 2.21 0.15 51 1017.6
20220525123324 21 346 8.0 16.1 0.00 2.21 0.15 50 1017.7
20220525122836 21 355 6.4 16.1 0.00 2.21 0.15 52 1017.6
20220525122327 21 338 4.8 16.1 0.00 2.21 0.15 52 1017.8
20220525121836 21 344 8.0 16.1 0.00 2.21 0.15 53 1017.7
20220525121332 21 329 4.8 12.9 0.00 2.21 0.15 53 1017.8
20220525120823 21 25 4.8 12.9 0.00 2.21 0.15 51 1017.6
20220525120321 21 322 4.8 16.1 0.00 2.21 0.15 50 1017.7
20220525115835 21 350 3.2 19.3 0.00 2.21 0.15 49 1017.6
20220525115327 21 333 11.3 19.3 0.00 2.21 0.15 48 1017.6
20220525114838 21 344 1.6 17.7 0.00 2.21 0.15 50 1017.5
20220525114329 21 342 6.4 12.9 0.00 2.21 0.15 50 1017.3
20220525113841 21 323 6.4 16.1 0.00 2.21 0.15 50 1017.4
20220525113332 21 331 8.0 20.9 0.00 2.21 0.15 51 1017.3
20220525112824 21 329 3.2 20.9 0.00 2.21 0.15 50 1017.3
20220525112339 21 355 4.8 14.5 0.00 2.21 0.15 51 1017.3
20220525111832 21 266 1.6 11.3 0.00 2.21 0.15 52 1017.3
20220525111325 21 330 0.0 16.1 0.00 2.21 0.15 53 1017.3
20220525110822 21 355 4.8 17.7 0.00 2.21 0.15 51 1017.3
20220525110316 21 360 4.8 11.3 0.00 2.21 0.15 55 1017.4
20220525105829 21 340 3.2 9.7 0.00 2.21 0.15 52 1017.2
20220525105320 21 329 1.6 11.3 0.00 2.21 0.15 53 1017.3
20220525104831 21 329 3.2 11.3 0.00 2.21 0.15 52 1017.3
20220525104330 21 322 3.2 16.1 0.00 2.21 0.15 54 1017.2
20220525103841 21 336 4.8 16.1 0.00 2.21 0.15 54 1017.2
20220525103332 21 349 4.8 17.7 0.00 2.21 0.15 53 1017.1
20220525102842 21 324 4.8 14.5 0.00 2.21 0.15 53 1017.0
20220525102334 21 333 3.2 14.5 0.00 2.21 0.15 54 1016.9
20220525101826 21 332 4.8 16.1 0.00 2.21 0.15 53 1016.9
20220525101340 21 343 4.8 16.1 0.00 2.21 0.15 55 1016.9
20220525100827 21 329 6.4 14.5 0.00 2.21 0.15 55 1016.9
20220525100332 20 330 3.2 9.7 0.00 2.21 0.15 55 1016.9
20220525095827 20 319 3.2 9.7 0.00 2.21 0.15 56 1016.9
20220525095339 20 344 1.6 16.1 0.00 2.21 0.15 56 1016.9
20220525094833 20 340 8.0 17.7 0.00 2.21 0.15 55 1016.8
20220525094325 20 338 1.6 17.7 0.00 2.21 0.15 55 1016.8
20220525093836 20 322 4.8 17.7 0.00 2.21 0.15 56 1016.7
20220525093326 20 331 4.8 11.3 0.00 2.21 0.15 55 1016.6
20220525092818 20 244 1.6 17.7 0.00 2.21 0.15 56 1016.6
20220525092333 20 329 1.6 17.7 0.00 2.21 0.15 55 1016.6
20220525091826 20 314 4.8 14.5 0.00 2.21 0.15 55 1016.7
20220525091339 20 304 3.2 17.7 0.00 2.21 0.15 54 1016.6
20220525090829 20 337 8.0 17.7 0.00 2.21 0.15 55 1016.5
20220525090321 20 304 1.6 17.7 0.00 2.21 0.15 56 1016.5
20220525085832 19 292 3.2 17.7 0.00 2.21 0.15 55 1016.4
20220525085324 20 322 8.0 16.1 0.00 2.21 0.15 53 1016.4
20220525084837 20 324 1.6 12.9 0.00 2.21 0.15 53 1016.3
20220525084328 20 340 1.6 17.7 0.00 2.21 0.15 55 1016.2
20220525083827 20 336 3.2 16.1 0.00 2.21 0.15 53 1016.2
20220525083341 19 345 6.4 19.3 0.00 2.21 0.15 53 1016.1
20220525082830 19 338 3.2 19.3 0.00 2.21 0.15 55 1016.1
20220525082345 19 338 3.2 16.1 0.00 2.21 0.15 55 1016.1
20220525081844 19 355 0.0 16.1 0.00 2.21 0.15 56 1016.0
20220525081336 18 303 1.6 12.9 0.00 2.21 0.15 56 1016.0
20220525080829 18 288 3.2 14.5 0.00 2.21 0.15 56 1016.0
20220525080339 18 277 0.0 14.5 0.00 2.21 0.15 56 1015.8
20220525075834 18 319 1.6 12.9 0.00 2.21 0.15 56 1015.8
20220525075325 18 355 3.2 12.9 0.00 2.21 0.15 57 1015.8
20220525074836 18 307 1.6 11.3 0.00 2.21 0.15 57 1015.6
20220525074328 17 319 3.2 11.3 0.00 2.21 0.15 58 1015.6
20220525073821 17 251 1.6 8.0 0.00 2.21 0.15 62 1015.5
20220525073316 17 254 3.2 14.5 0.00 2.21 0.15 61 1015.5
20220525072834 17 224 3.2 14.5 0.00 2.21 0.15 61 1015.4
20220525072321 17 284 0.0 9.7 0.00 2.21 0.15 62 1015.4
20220525071817 16 294 1.6 9.7 0.00 2.21 0.15 62 1015.3
20220525071334 16 264 3.2 12.9 0.00 2.21 0.15 62 1015.3
20220525070828 16 277 1.6 11.3 0.00 2.21 0.15 62 1015.1
20220525070340 16 246 1.6 11.3 0.00 2.21 0.15 63 1015.0
20220525065826 16 290 3.2 12.9 0.00 2.21 0.15 63 1015.0
20220525065338 16 298 1.6 12.9 0.00 2.21 0.15 63 1014.9
20220525064830 16 251 1.6 11.3 0.00 2.21 0.15 66 1014.9
20220525064321 16 301 1.6 12.9 0.00 2.21 0.15 66 1014.8
20220525063837 15 222 1.6 12.9 0.00 2.21 0.15 67 1014.8
20220525063328 15 226 1.6 11.3 0.00 2.21 0.15 69 1014.7
20220525062822 15 245 1.6 8.0 0.00 2.21 0.15 69 1014.7
20220525062316 15 266 3.2 8.0 0.00 2.21 0.15 69 1014.5
20220525061829 15 277 1.6 11.3 0.00 2.21 0.15 71 1014.4
20220525061320 15 232 4.8 11.3 0.00 2.21 0.15 72 1014.3
20220525060828 15 239 3.2 11.3 0.00 2.21 0.15 73 1014.2
20220525060319 15 239 3.2 11.3 0.00 2.21 0.15 74 1014.2
20220525055818 15 230 3.2 8.0 0.00 2.21 0.15 74 1014.1
20220525055332 15 230 3.2 9.7 0.00 2.21 0.15 75 1014.0
20220525054824 14 230 6.4 11.3 0.00 2.21 0.15 75 1013.9
20220525054319 14 227 4.8 12.9 0.00 2.21 0.15 76 1013.9
20220525053816 14 232 4.8 12.9 0.00 2.21 0.15 77 1013.8
20220525053330 14 237 3.2 12.9 0.00 2.21 0.15 77 1013.7
20220525052828 14 239 8.0 12.9 0.00 2.21 0.15 78 1013.6
20220525052322 14 232 1.6 11.3 0.00 2.21 0.15 78 1013.5
20220525051817 14 232 4.8 14.5 0.00 2.21 0.15 78 1013.4
20220525051332 14 243 8.0 16.1 0.00 2.21 0.15 78 1013.3
20220525050822 14 233 8.0 16.1 0.00 2.21 0.15 79 1013.3
20220525050316 13 237 3.2 9.7 0.00 2.21 0.15 79 1013.2
20220525045831 13 236 6.4 11.3 0.00 2.21 0.15 79 1013.1
20220525045323 13 232 6.4 11.3 0.00 2.21 0.15 80 1013.1
20220525044834 13 237 4.8 12.9 0.00 2.21 0.15 80 1013.1
20220525044329 13 234 3.2 12.9 0.00 2.21 0.15 80 1013.0
20220525043819 13 233 4.8 11.3 0.00 2.21 0.15 80 1013.0
20220525043336 13 221 3.2 9.7 0.00 2.21 0.15 80 1013.0
20220525042827 13 252 0.0 1.6 0.00 2.21 0.15 81 1012.9
20220525042322 13 252 0.0 1.6 0.00 2.21 0.15 81 1012.9
20220525041834 13 252 0.0 1.6 0.00 2.21 0.15 82 1012.8
20220525041326 13 252 0.0 4.8 0.00 2.21 0.15 82 1012.8
20220525040821 13 252 0.0 6.4 0.00 2.21 0.15 82 1012.8
20220525040327 14 248 1.6 6.4 0.00 2.21 0.15 83 1012.8
20220525035817 14 248 0.0 9.7 0.00 2.21 0.15 83 1012.7
20220525035331 14 248 4.8 9.7 0.00 2.21 0.15 83 1012.7
20220525034822 14 247 3.2 9.7 0.00 2.21 0.15 83 1012.6
20220525034317 14 269 0.0 4.8 0.00 2.21 0.15 83 1012.6
20220525033834 14 270 0.0 4.8 0.00 2.21 0.15 83 1012.6
20220525033328 14 270 0.0 8.0 0.00 2.21 0.15 82 1012.5
20220525032820 14 271 1.6 8.0 0.00 2.21 0.15 82 1012.5
20220525032335 15 269 1.6 6.4 0.00 2.21 0.15 82 1012.4
20220525031826 15 259 0.0 4.8 0.00 2.21 0.15 82 1012.4
20220525031338 15 259 1.6 4.8 0.00 2.21 0.15 82 1012.5
20220525030828 15 258 1.6 4.8 0.00 2.21 0.15 82 1012.5
20220525030347 15 274 1.6 4.8 0.00 2.21 0.15 82 1012.5
20220525025817 15 313 0.0 4.8 0.00 2.21 0.15 82 1012.4
20220525025333 15 313 0.0 4.8 0.00 2.21 0.15 82 1012.4
20220525024820 15 308 0.0 3.2 0.00 2.21 0.15 82 1012.4
20220525024316 15 308 0.0 4.8 0.00 2.21 0.15 82 1012.4
20220525023828 15 308 0.0 4.8 0.00 2.21 0.15 82 1012.5
20220525023320 15 308 0.0 6.4 0.00 2.21 0.15 81 1012.3
20220525022832 15 308 1.6 6.4 0.00 2.21 0.15 80 1012.4
20220525022322 15 308 1.6 11.3 0.00 2.21 0.15 80 1012.3
20220525021817 15 311 1.6 11.3 0.00 2.21 0.15 83 1012.4
20220525021334 15 323 1.6 8.0 0.00 2.21 0.15 81 1012.3
20220525020828 15 268 3.2 8.0 0.00 2.21 0.15 81 1012.3
20220525020333 15 269 1.6 9.7 0.00 2.21 0.15 81 1012.3
20220525015821 15 314 1.6 9.7 0.00 2.21 0.15 81 1012.3
20220525015313 15 306 1.6 6.4 0.00 2.21 0.15 81 1012.3
20220525014830 15 317 1.6 11.3 0.00 2.21 0.15 81 1012.3
20220525014321 15 292 1.6 4.8 0.00 2.21 0.15 82 1012.3
20220525013816 15 291 0.0 8.0 0.00 2.21 0.15 82 1012.3
20220525013331 15 292 1.6 8.0 0.00 2.21 0.15 82 1012.3
20220525012321 15 317 0.0 4.8 0.00 2.21 0.15 82 1012.3
20220525011831 15 317 0.0 3.2 0.00 2.21 0.15 82 1012.2
20220525011322 15 316 0.0 11.3 0.00 2.21 0.15 82 1012.2
20220525010817 15 316 3.2 11.3 0.00 2.21 0.15 82 1012.1
20220525010331 15 307 0.0 14.5 0.00 2.21 0.15 83 1012.2
20220525005823 15 307 0.0 14.5 0.00 2.21 0.15 82 1012.3
20220525005337 15 334 0.0 12.9 0.00 2.21 0.15 83 1012.3
20220525004827 15 334 3.2 9.7 0.00 2.21 0.15 83 1012.3
20220525004322 15 292 3.2 9.7 0.00 2.21 0.15 83 1012.3
20220525003816 15 261 1.6 9.7 0.00 2.21 0.15 84 1012.4
20220525003327 15 322 1.6 11.3 0.00 2.21 0.15 85 1012.3
20220525002816 15 274 3.2 16.1 0.00 2.21 0.15 86 1012.2
20220525002334 15 307 1.6 16.1 0.00 2.21 0.15 86 1012.3
20220525001822 15 313 1.6 8.0 0.00 2.21 0.15 86 1012.4
20220525001317 15 342 3.2 8.0 0.00 2.21 0.15 86 1012.4
20220525000831 15 347 1.6 16.1 0.00 2.21 0.15 87 1012.3
20220525000327 15 317 3.2 16.1 0.00 2.21 0.15 87 1012.3
20220524235816 15 249 1.6 14.5 0.00 2.21 0.15 88 1012.4
20220524235327 15 294 3.2 11.3 0.00 2.21 0.15 88 1012.4
20220524234820 15 257 1.6 9.7 0.00 2.21 0.15 88 1012.3
20220524234337 15 292 3.2 9.7 0.00 2.21 0.15 88 1012.5
20220524233828 15 300 1.6 9.7 0.00 2.21 0.15 88 1012.4
20220524233322 15 306 1.6 16.1 0.00 2.21 0.15 88 1012.4
20220524232837 15 333 3.2 16.1 0.10 2.21 0.15 87 1012.4
20220524232332 15 329 1.6 14.5 0.10 2.21 0.15 87 1012.4
20220524231824 15 313 1.6 17.7 0.51 2.21 0.15 87 1012.3
20220524231335 15 314 4.8 17.7 0.71 2.21 0.15 87 1012.4
20220524230827 15 315 3.2 14.5 0.71 2.21 0.15 87 1012.5
20220524230339 16 296 1.6 12.9 0.79 2.21 0.15 88 1012.4
20220524225827 16 311 3.2 22.5 0.79 2.21 0.15 88 1012.3
20220524225322 16 305 6.4 22.5 0.79 2.21 0.15 87 1012.4
20220524224834 16 355 8.0 20.9 0.79 2.21 0.15 87 1012.5
20220524224322 16 314 6.4 20.9 0.79 2.21 0.15 87 1012.4
20220524223816 16 355 3.2 16.1 0.79 2.21 0.15 87 1012.3
20220524223330 16 333 3.2 19.3 0.79 2.21 0.15 86 1012.3
20220524222822 16 326 4.8 20.9 0.71 2.11 0.15 86 1012.2
20220524222316 16 30 8.0 20.9 0.61 2.01 0.13 86 1012.1
20220524221830 16 315 1.6 9.7 0.61 1.70 0.05 86 1012.2
20220524221322 17 317 1.6 12.9 0.99 1.50 0.03 86 1012.3
20220524220832 17 288 3.2 20.9 0.89 1.40 0.00 85 1012.2
20220524220335 17 328 6.4 25.7 0.89 1.40 0.00 86 1011.8
20220524215828 17 317 8.0 27.4 0.89 1.40 0.28 87 1011.4
20220524215322 17 299 3.2 29.0 0.89 1.40 0.28 88 1011.0
20220524214820 18 355 4.8 29.0 0.89 1.40 0.28 88 1011.0
20220524214336 18 197 12.9 29.0 0.89 1.40 0.28 89 1010.8
20220524213827 18 355 6.4 22.5 0.89 1.40 0.28 89 1010.4
20220524213322 18 360 6.4 22.5 0.89 1.40 0.28 88 1010.3
20220524212833 18 263 3.2 11.3 0.89 1.40 0.28 88 1010.4
20220524212328 18 289 4.8 30.6 0.89 1.40 0.28 88 1010.2
20220524211830 18 295 3.2 30.6 0.41 0.89 0.18 88 1010.2
20220524211321 18 350 0.0 19.3 0.00 0.51 0.10 87 1010.0
20220524210831 18 355 3.2 19.3 0.00 0.51 0.10 87 1010.0
20220524210323 18 329 8.0 19.3 0.10 0.51 0.10 87 1009.8
20220524205835 18 324 4.8 22.5 0.10 0.51 0.10 87 1009.8
20220524205327 18 312 8.0 22.5 0.10 0.51 0.10 87 1009.6
20220524204841 18 315 8.0 20.9 0.10 0.51 0.10 87 1009.4
20220524204328 19 10 1.6 17.7 0.10 0.51 0.10 88 1009.2
20220524203824 19 336 1.6 17.7 0.10 0.51 0.10 87 1008.9
20220524203335 19 290 6.4 17.7 0.10 0.51 0.10 87 1008.9
20220524202829 19 317 6.4 20.9 0.10 0.51 0.10 87 1008.6
20220524202321 19 343 4.8 20.9 0.10 0.51 0.10 87 1008.7
20220524201830 20 319 3.2 17.7 0.10 0.51 0.10 87 1008.7
20220524201325 20 38 8.0 17.7 0.10 0.51 0.10 87 1008.5
20220524200837 20 312 0.0 6.4 0.10 0.51 0.10 88 1008.3
20220524200328 20 309 0.0 6.4 0.00 0.41 0.08 88 1008.1
20220524195822 20 309 1.6 6.4 0.00 0.41 0.08 88 1008.0
20220524195335 20 312 0.0 8.0 0.00 0.41 0.08 88 1008.0
20220524194824 20 285 1.6 8.0 0.00 0.41 0.08 89 1007.9
20220524194316 20 318 0.0 6.4 0.00 0.41 0.08 89 1007.9
20220524193830 20 318 1.6 8.0 0.00 0.41 0.08 89 1007.8
20220524193322 20 317 1.6 8.0 0.00 0.41 0.08 89 1007.7
20220524192837 20 317 0.0 3.2 0.00 0.41 0.08 89 1007.6
20220524192327 20 317 0.0 8.0 0.00 0.41 0.08 89 1007.6
20220524191823 20 318 1.6 9.7 0.00 0.41 0.08 89 1007.5
20220524191332 20 317 1.6 9.7 0.00 0.41 0.08 89 1007.4
20220524190820 20 351 1.6 11.3 0.00 0.41 0.08 89 1007.3
20220524190338 20 313 1.6 6.4 0.00 0.41 0.08 89 1007.3
20220524185827 20 319 0.0 16.1 0.00 0.41 0.08 89 1007.3
20220524185319 20 245 3.2 16.1 0.00 0.41 0.08 89 1007.0
20220524184830 21 323 3.2 11.3 0.00 0.41 0.08 89 1006.9
20220524184322 21 336 1.6 12.9 0.00 0.41 0.08 89 1006.9
20220524183832 21 319 3.2 12.9 0.00 0.41 0.08 89 1006.8
20220524183328 21 327 1.6 8.0 0.00 0.41 0.08 89 1006.4
20220524182817 21 338 0.0 11.3 0.00 0.41 0.08 89 1006.2
20220524182332 21 337 1.6 9.7 0.00 0.41 0.08 89 1006.1
20220524181825 21 327 3.2 9.7 0.00 0.41 0.08 89 1006.3
20220524181319 21 339 4.8 8.0 0.00 0.41 0.08 89 1006.3
20220524180817 21 264 1.6 8.0 0.00 0.41 0.08 89 1006.1
20220524180332 21 252 3.2 8.0 0.00 0.41 0.08 89 1006.0
20220524175826 21 248 0.0 4.8 0.00 0.41 0.08 89 1006.0
20220524175321 21 248 1.6 4.8 0.00 0.41 0.08 89 1006.1
20220524174835 21 248 1.6 8.0 0.00 0.41 0.08 88 1006.1
20220524174326 21 248 3.2 9.7 0.00 0.41 0.08 88 1006.3
20220524173838 21 248 4.8 9.7 0.10 0.41 0.08 88 1006.2
20220524173328 21 284 3.2 8.0 0.20 0.41 0.08 88 1006.0
20220524172823 21 340 1.6 4.8 0.20 0.41 0.08 88 1005.7
20220524172335 21 341 0.0 6.4 0.30 0.41 0.08 88 1005.3
20220524171829 21 342 3.2 6.4 0.30 0.41 0.08 88 1005.4
20220524171323 21 355 1.6 4.8 0.41 0.41 0.08 87 1005.1
20220524170835 21 355 0.0 3.2 0.41 0.41 0.08 87 1004.8
20220524170327 21 355 0.0 0.0 0.41 0.41 0.08 87 1005.3
20220524165822 21 355 0.0 0.0 0.41 0.41 0.08 87 1005.2
20220524165332 21 355 0.0 0.0 0.41 0.41 0.08 87 1005.4
20220524164817 21 355 0.0 3.2 0.41 0.41 0.08 87 1005.4
20220524164331 21 355 0.0 4.8 0.41 0.41 0.08 86 1005.6
20220524163827 21 355 1.6 4.8 0.30 0.30 0.05 86 1005.7
20220524163339 21 355 0.0 1.6 0.20 0.20 0.05 85 1005.8
20220524162831 21 355 0.0 1.6 0.10 0.10 0.03 85 1005.7
20220524162322 22 355 0.0 0.0 0.10 0.10 0.03 83 1005.9
20220524161836 22 355 0.0 0.0 0.10 0.10 0.03 83 1005.4
20220524161328 22 355 0.0 0.0 0.00 0.00 0.00 82 1005.5
20220524160841 22 355 0.0 0.0 0.00 0.00 0.00 81 1005.4
20220524160322 22 355 0.0 1.6 0.00 0.00 0.00 80 1005.5
20220524155838 22 355 0.0 1.6 0.00 0.00 0.00 80 1005.6
20220524155330 22 355 0.0 3.2 0.00 0.00 0.00 79 1005.6
20220524154822 22 355 0.0 4.8 0.00 0.00 0.00 79 1005.6
20220524154337 22 355 1.6 3.2 0.00 0.00 0.00 79 1005.6
20220524153823 23 355 0.0 4.8 0.00 0.00 0.00 79 1005.4
20220524153335 23 355 1.6 4.8 0.00 0.00 0.00 78 1005.3
20220524152832 23 355 0.0 6.4 0.00 0.00 0.00 77 1005.5
20220524152324 23 355 3.2 6.4 0.00 0.00 0.00 76 1005.4
20220524151836 23 355 1.6 6.4 0.00 0.00 0.00 75 1005.2
20220524151331 23 355 1.6 6.4 0.00 0.00 0.00 74 1005.4
20220524150827 23 355 1.6 6.4 0.00 0.00 0.00 74 1005.5
20220524150334 23 355 1.6 8.0 0.00 0.00 0.00 73 1005.6
20220524145824 24 355 0.0 11.3 0.00 0.00 0.00 73 1005.7
20220524145335 24 336 0.0 8.0 0.00 0.00 0.00 72 1005.4
20220524144827 25 336 1.6 8.0 0.00 0.00 0.00 71 1005.4
20220524144338 25 339 0.0 9.7 0.00 0.00 0.00 71 1005.4
20220524143835 25 344 3.2 8.0 0.00 0.00 0.00 69 1005.7
20220524143333 25 346 1.6 9.7 0.00 0.00 0.00 69 1005.8
20220524142826 25 346 3.2 11.3 0.00 0.00 0.00 69 1005.6
20220524142341 26 346 3.2 11.3 0.00 0.00 0.00 67 1005.7
20220524141832 26 340 1.6 16.1 0.00 0.00 0.00 69 1005.8
20220524141324 26 317 6.4 16.1 0.00 0.00 0.00 69 1005.9
20220524140835 26 329 3.2 14.5 0.00 0.00 0.00 68 1005.9
20220524140327 26 308 3.2 17.7 0.00 0.00 0.00 68 1006.2
20220524135842 26 331 4.8 14.5 0.00 0.00 0.00 68 1006.2
20220524135337 26 332 4.8 14.5 0.00 0.00 0.00 68 1006.2
20220524134827 26 333 4.8 14.5 0.00 0.00 0.00 67 1006.2
20220524134340 26 330 1.6 11.3 0.00 0.00 0.00 68 1006.2
20220524133828 26 322 1.6 8.0 0.00 0.00 0.00 70 1006.2